Weather History for Siemreap, Cambodia

Change the Weather History Date:

Friday, October 11, 2013

  Actual Average Record
Temperature  
Mean Temperature 84 °F -  
Max Temperature 89 °F - - ()
Min Temperature 78 °F - - ()
Cooling Degree Days 18    
Growing Degree Days 34 (Base 50)    
Moisture  
Dew Point 74 °F    
Average Humidity 70    
Maximum Humidity 83    
Minimum Humidity 58    
Precipitation  
Precipitation 0.00 in - - ()
Sea Level Pressure  
Sea Level Pressure 29.79 in    
Wind  
Wind Speed 0 mph ()    
Max Wind Speed 6 mph    
Max Gust Speed -    
Visibility 5.6 miles    
Events      
T = Trace of Precipitation, MM = Missing Value Source: Averaged Metar Reports

Daily Weather History Graph

Daily Weather History Graph

Search for Another Location

Airport:

Trip Planner

Search our weather history database for the weather conditions in past years. The results will help you decide how hot, cold, wet, or windy it might be!

Date:

Astronomy

Oct. 11, 2013 Rise Set
Actual Time 5:54 AM ICT 5:47 PM ICT
Civil Twilight 5:33 AM ICT 6:09 PM ICT
Nautical Twilight 5:08 AM ICT 6:34 PM ICT
Astronomical Twilight 4:43 AM ICT 6:58 PM ICT
Moon 11:37 AM ICT (10/11) 11:27 PM ICT (10/11)
Length of Visible Light 12h 35m
Length of Day
11h 53m
Waxing Crescent, 41% of the Moon is Illuminated
Oct 11
Waxing Crescent
Oct 12
First Quarter
Oct 19
Full
Oct 27
Last Quarter
Nov 3
New

Hourly Weather History & Observations

Time (ICT) Temp. Heat Index Dew Point Humidity Pressure Visibility Wind Dir Wind Speed Gust Speed Precip Events Conditions
12:00 AM 80.6 °F 84.6 °F 71.6 °F 74% 29.83 in 5.6 mi Calm Calm - N/A   Partly Cloudy
12:30 AM 80.6 °F 84.6 °F 71.6 °F 74% 29.83 in 5.6 mi Calm Calm - N/A   Partly Cloudy
1:00 AM 80.6 °F 85.4 °F 73.4 °F 79% 29.83 in 5.6 mi Calm Calm - N/A   Partly Cloudy
7:00 AM 78.8 °F - 73.4 °F 83% 29.83 in 5.6 mi Calm Calm - N/A   Unknown
7:30 AM 78.8 °F - 71.6 °F 78% 29.83 in - Calm Calm - N/A   Clear
8:00 AM 80.6 °F 85.4 °F 73.4 °F 79% 29.83 in - Calm Calm - N/A   Clear
8:30 AM 82.4 °F 88.2 °F 73.4 °F 74% 29.86 in - Calm Calm - N/A   Clear
9:00 AM 82.4 °F 88.2 °F 73.4 °F 74% 29.86 in - Calm Calm - N/A   Clear
9:30 AM 84.2 °F 89.6 °F 71.6 °F 66% 29.86 in - Calm Calm - N/A   Clear
10:00 AM 86.0 °F 91.8 °F 71.6 °F 62% 29.86 in - Calm Calm - N/A   Clear
11:00 AM 86.0 °F 91.8 °F 71.6 °F 62% 29.86 in - Calm Calm - N/A   Clear
11:30 AM 86.0 °F 91.8 °F 71.6 °F 62% 29.83 in - Calm Calm - N/A   Clear
12:00 PM 87.8 °F 95.6 °F 73.4 °F 62% 29.83 in - Calm Calm - N/A   Clear
12:30 PM 87.8 °F 95.6 °F 73.4 °F 62% 29.80 in 5.6 mi Calm Calm - N/A   Scattered Clouds
1:00 PM 87.8 °F 93.8 °F 71.6 °F 58% 29.80 in 5.6 mi Calm Calm - N/A   Scattered Clouds
1:30 PM 87.8 °F 93.8 °F 71.6 °F 58% 29.77 in 5.6 mi Calm Calm - N/A   Scattered Clouds
2:00 PM 87.8 °F 93.8 °F 71.6 °F 58% 29.74 in 5.6 mi Calm Calm - N/A   Partly Cloudy
2:30 PM 87.8 °F 93.8 °F 71.6 °F 58% 29.74 in 5.6 mi Calm Calm - N/A   Partly Cloudy
3:00 PM 89.6 °F 98.2 °F 73.4 °F 59% 29.71 in 5.6 mi Calm Calm - N/A   Partly Cloudy
3:30 PM 89.6 °F 98.2 °F 73.4 °F 59% 29.71 in 5.6 mi Calm Calm - N/A   Partly Cloudy
4:00 PM 87.8 °F 97.6 °F 75.2 °F 66% 29.71 in 5.6 mi Calm Calm - N/A   Partly Cloudy
4:30 PM 87.8 °F 97.6 °F 75.2 °F 66% 29.71 in 5.6 mi Calm Calm - N/A   Partly Cloudy
5:00 PM 86.0 °F 95.1 °F 75.2 °F 70% 29.71 in 5.6 mi Calm Calm - N/A   Partly Cloudy
5:30 PM 86.0 °F 95.1 °F 75.2 °F 70% 29.71 in 5.6 mi Calm Calm - N/A   Partly Cloudy
6:00 PM 86.0 °F 95.1 °F 75.2 °F 70% 29.71 in 5.6 mi Calm Calm - N/A   Partly Cloudy
6:30 PM 84.2 °F 92.3 °F 75.2 °F 74% 29.74 in 5.6 mi Calm Calm - N/A   Scattered Clouds
7:00 PM 84.2 °F 92.3 °F 75.2 °F 74% 29.74 in 5.6 mi Calm Calm - N/A   Scattered Clouds
7:30 PM 84.2 °F 92.3 °F 75.2 °F 74% 29.77 in 5.6 mi Calm Calm - N/A   Scattered Clouds
8:00 PM 84.2 °F 92.3 °F 75.2 °F 74% 29.77 in 5.6 mi Calm Calm - N/A   Scattered Clouds
8:30 PM 84.2 °F 92.3 °F 75.2 °F 74% 29.80 in 5.6 mi Calm Calm - N/A   Scattered Clouds
9:00 PM 84.2 °F 90.9 °F 73.4 °F 70% 29.80 in 5.6 mi NNW 5.8 mph - N/A   Scattered Clouds
9:30 PM 84.2 °F 90.9 °F 73.4 °F 70% 29.80 in 5.6 mi North 2.3 mph - N/A   Scattered Clouds
10:00 PM 82.4 °F 89.5 °F 75.2 °F 79% 29.80 in 5.6 mi NNW 2.3 mph - N/A   Scattered Clouds
10:30 PM 82.4 °F 89.5 °F 75.2 °F 79% 29.80 in 5.6 mi North 2.3 mph - N/A   Scattered Clouds
11:00 PM 82.4 °F 89.5 °F 75.2 °F 79% 29.83 in 5.6 mi North 4.6 mph - N/A   Scattered Clouds
11:30 PM 82.4 °F 89.5 °F 75.2 °F 79% 29.80 in 5.6 mi NNE 4.6 mph - N/A   Scattered Clouds